Pompano Beach, FL

1:59 AM EDT on April 21, 2018 (GMT -0400)
Pompano Beach

Weather History for KPMP - April, 2014

Change the Weather History Date:

Tuesday, April 15, 2014

  Actual Average Record
Temperature  
Mean Temperature 80 °F -  
Max Temperature 86 °F 83 °F 94 °F (1975)
Min Temperature 73 °F 66 °F 50 °F (1951)
Cooling Degree Days 14    
Growing Degree Days 30 (Base 50)    
Moisture  
Dew Point 72 °F    
Average Humidity 81    
Maximum Humidity 93    
Minimum Humidity 63    
Precipitation  
Precipitation 0.80 in - - ()
Sea Level Pressure  
Sea Level Pressure 29.90 in    
Wind  
Wind Speed 10 mph (SSE)    
Max Wind Speed 31 mph    
Max Gust Speed 46 mph    
Visibility 8 miles    
Events Fog , Rain , Thunderstorm    
Averages and records for this station are not official NWS values.
T = Trace of Precipitation, MM = Missing Value Source: NWS Daily Summary

Daily Weather History Graph

Daily Weather History Graph

Search for Another Location

Airport or City:

Astronomy

Apr. 15, 2014 Rise Set
Actual Time 6:57 AM EDT 7:44 PM EDT
Civil Twilight 6:33 AM EDT 8:07 PM EDT
Nautical Twilight 6:05 AM EDT 8:35 PM EDT
Astronomical Twilight 5:37 AM EDT 9:04 PM EDT
Moon 8:19 PM EDT (4/15) 7:05 AM EDT (4/15)
Length of Visible Light 13h 34m
Length of Day
12h 47m
Full, 100% of the Moon is Illuminated
Apr 15
Full
Apr 22
Last Quarter
Apr 29
New
May 6
First Quarter
May 14
Full

Hourly Weather History & Observations

Time (EDT) Temp. Heat Index Dew Point Humidity Pressure Visibility Wind Dir Wind Speed Gust Speed Precip Events Conditions
12:53 AM 77.0 °F - 71.1 °F 82% 29.94 in 10.0 mi SSE 5.8 mph - N/A   Clear
1:53 AM 77.0 °F - 71.1 °F 82% 29.92 in 10.0 mi SSE 6.9 mph - N/A   Clear
2:53 AM 75.9 °F - 71.1 °F 85% 29.91 in 10.0 mi SSE 4.6 mph - N/A   Clear
3:53 AM 75.9 °F - 72.0 °F 87% 29.91 in 10.0 mi SSE 4.6 mph - N/A   Partly Cloudy
4:53 AM 77.0 °F - 72.0 °F 84% 29.91 in 10.0 mi SSE 5.8 mph - N/A   Clear
5:53 AM 77.0 °F - 72.0 °F 84% 29.92 in 10.0 mi SE 3.5 mph - N/A   Partly Cloudy
6:53 AM 77.0 °F - 72.0 °F 84% 29.93 in 10.0 mi South 6.9 mph - N/A   Clear
7:53 AM 78.1 °F - 72.0 °F 81% 29.93 in 10.0 mi SSE 11.5 mph - N/A   Partly Cloudy
8:53 AM 80.1 °F 83.8 °F 72.0 °F 76% 29.94 in 10.0 mi South 16.1 mph 19.6 mph N/A   Clear
9:53 AM 82.9 °F 88.0 °F 72.0 °F 69% 29.94 in 10.0 mi SSE 13.8 mph 21.9 mph N/A   Scattered Clouds
10:53 AM 82.9 °F 87.5 °F 71.1 °F 67% 29.95 in 10.0 mi SSE 19.6 mph 27.6 mph N/A   Scattered Clouds
11:53 AM 84.9 °F 90.7 °F 72.0 °F 65% 29.94 in 10.0 mi SSE 16.1 mph 24.2 mph N/A   Partly Cloudy
12:53 PM 86.0 °F 92.2 °F 72.0 °F 63% 29.92 in 10.0 mi SSE 19.6 mph 26.5 mph N/A   Partly Cloudy
1:53 PM 84.0 °F 89.6 °F 72.0 °F 67% 29.91 in 10.0 mi SSE 19.6 mph 26.5 mph N/A   Clear
2:53 PM 84.0 °F 90.2 °F 73.0 °F 69% 29.88 in 10.0 mi SSE 13.8 mph 27.6 mph N/A   Clear
3:53 PM 84.0 °F 90.2 °F 73.0 °F 69% 29.86 in 10.0 mi SSE 21.9 mph 29.9 mph 0.01 in   Clear
4:53 PM 80.1 °F 84.2 °F 73.0 °F 79% 29.85 in 10.0 mi SSE 16.1 mph 26.5 mph 0.02 in Thunderstorm Thunderstorm
4:58 PM 79.0 °F - 72.0 °F 79% 29.90 in 0.8 mi WSW 31.1 mph 46.0 mph 0.08 in Thunderstorm Unknown
5:00 PM 75.9 °F - 70.0 °F 82% 29.91 in 0.2 mi West 27.6 mph 46.0 mph 0.19 in Rain , Thunderstorm Heavy Thunderstorms and Rain
5:05 PM 73.0 °F - 68.0 °F 84% 29.91 in 0.2 mi West 9.2 mph 46.0 mph 0.34 in Rain , Thunderstorm Heavy Thunderstorms and Rain
5:18 PM 73.0 °F - 69.1 °F 87% 29.89 in 0.2 mi South 8.1 mph - 0.67 in Fog , Rain , Thunderstorm Heavy Thunderstorms and Rain
5:26 PM 73.0 °F - 70.0 °F 90% 29.87 in 1.0 mi SE 10.4 mph - 0.77 in Rain , Thunderstorm Thunderstorms and Rain
5:30 PM 73.0 °F - 70.0 °F 90% 29.88 in 3.0 mi SE 9.2 mph - 0.77 in Rain , Thunderstorm Light Thunderstorms and Rain
5:38 PM 73.9 °F - 72.0 °F 93% 29.88 in 9.0 mi SSE 12.7 mph - 0.77 in Thunderstorm Thunderstorm
5:53 PM 75.0 °F - 72.0 °F 90% 29.88 in 9.0 mi SSE 10.4 mph - 0.77 in Thunderstorm Thunderstorm
5:58 PM 75.0 °F - 72.0 °F 90% 29.86 in 9.0 mi SSE 9.2 mph - N/A   Clear
6:10 PM 77.0 °F - 73.0 °F 88% 29.87 in 10.0 mi SSE 10.4 mph - N/A Thunderstorm Clear
6:39 PM 78.1 °F - 73.0 °F 84% 29.88 in 10.0 mi SSE 10.4 mph - N/A   Partly Cloudy
6:53 PM 78.1 °F - 73.0 °F 84% 29.89 in 10.0 mi South 8.1 mph - N/A Thunderstorm Mostly Cloudy
7:23 PM 79.0 °F - 71.1 °F 77% 29.89 in 10.0 mi South 5.8 mph - N/A   Partly Cloudy
7:53 PM 78.1 °F - 71.1 °F 79% 29.90 in 9.0 mi South 5.8 mph - N/A   Clear
8:53 PM 78.1 °F - 73.0 °F 84% 29.91 in 9.0 mi South 3.5 mph - N/A   Clear
9:53 PM 78.1 °F - 73.0 °F 84% 29.92 in 9.0 mi South 5.8 mph - N/A   Clear
10:53 PM 77.0 °F - 73.0 °F 88% 29.93 in 8.0 mi SW 3.5 mph - N/A   Clear
11:53 PM 77.0 °F - 73.0 °F 88% 29.94 in 8.0 mi Calm Calm - N/A   Clear